Regional Weather Roundup
Issued by NWS

Home | Current Version | Previous Version | Graphics & Text | Print | Product List | Glossary On
Versions: 1 2 3 4 5 6 7 8 9 10 11 12 13 14 15 16 17 18 19 20 21 22 23 24 25 26 27 28 29 30 31 32 33 34 35 36 37 38 39 40 41 42 43 44 45 46 47 48 49 50
820
ASUS43 KDMX 190506
RWRIA

WEATHER ROUNDUP FOR IOWA
NATIONAL WEATHER SERVICE DES MOINES IA
1100 PM CST WED JAN 18 2017

NOTE: "FAIR" INDICATES FEW OR NO CLOUDS BELOW 12,000 FEET WITH NO
SIGNIFICANT WEATHER AND/OR OBSTRUCTIONS TO VISIBILITY.

* - THESE STATIONS ARE NOT NWS STATIONS...THUS NOT UNDER NWS
QUALITY CONTROL.  THEY ALSO DO NOT REPORT WEATHER SUCH
AS PRECIPITATION OR FOG.

IAZ001>003-012>014-020>022-031>034-043>046-190600-
   NORTHWEST IOWA

CITY           SKY/WX    TMP DP  RH WIND       PRES   REMARKS
CARROLL *      CLEAR     37  36  93 S16       29.88F WCI  28
CHEROKEE *     CLEAR     36  35  96 S8        29.85R WCI  30
DENISON *      CLEAR     37  36  93 VRB5      29.86F WCI  34
LE MARS *      CLEAR     39  36  87 S14       29.83S WCI  31
ORANGE CITY *  CLEAR     36  36 100 S10       29.82S WCI  28
SHELDON *      CLEAR     37  37 100 S16       29.80S WCI  28
SIOUX CITY     CLEAR     36  33  89 E7        29.84R WCI  30
SPENCER        CLEAR     35  33  92 S7        29.84R WCI  29
STORM LAKE *   CLEAR     36  34  93 S13       29.85S WCI  27
$$

IAZ055>058-069>071-079>083-090>094-190600-
   SOUTHWEST IOWA

CITY           SKY/WX    TMP DP  RH WIND       PRES   REMARKS
ATLANTIC *     CLEAR     36  36 100 S10       29.91S WCI  28
AUDUBON *      CLEAR     36  34  93 S8        29.91S WCI  29
CLARINDA *     CLEAR     36  36 100 S7        29.95S WCI  30
COUNCIL BLFS * CLEAR     36  36 100 SE7       29.88S WCI  30
CRESTON *      FOG       36  36 100 S14       29.94F VSB 1/4 WCI  27
HARLAN  *      CLEAR     36  36 100 S9        29.93F WCI  29
LAMONI         FOG       35  35 100 S8        29.95F VSB 1/4 WCI  29
RED OAK *      CLEAR     36  36 100 S10       29.91F WCI  28
SHENANDOAH *   CLEAR     36  34  93 CALM      29.93S
$$

IAZ047>049-059>061-072>074-084-190600-
   CENTRAL IOWA

CITY           SKY/WX    TMP DP  RH WIND       PRES   REMARKS
AMES           CLOUDY    33  33 100 S7        29.93F FOG     WCI  27
ANKENY *       FOG       34  34 100 S8        29.96S VSB 1/2 WCI  27
BOONE *        CLOUDY    34  34 100 S10       29.90F FOG     WCI  26
CHARITON *     FOG       36  36 100 S9        29.97S VSB 1/4 WCI  29
DES MOINES     FOG       35  35 100 S10       29.95F VSB 1/2 WCI  27
GRINNELL*      FOG       32  32  99 S12       29.97F VSB 1/4 WCI  23
KNOXVILLE *    FOG       34  34 100 S8        29.96S VSB 1/4 WCI  27
MARSHALLTOWN   MOCLDY    33  33 100 S8        29.94S FOG     WCI  26
NEWTON *       FOG       32  32 100 S12       29.96S VSB<1/4 WCI  23
PELLA *        FOG       34  33  98 S7        30.00R VSB 3/4 WCI  27
PERRY *        CLOUDY    34  34 100 S15       29.91F FOG     WCI  24
$$

IAZ004>006-015-016-023>025-035-036-190600-
   NORTH CENTRAL IOWA

CITY           SKY/WX    TMP DP  RH WIND       PRES   REMARKS
ALGONA *       CLEAR     36  36 100 S15       29.85F WCI  26
CLARION *      CLEAR     34  34 100 S14       29.89S WCI  24
ESTHERVILLE    CLEAR     34  34 100 S15       29.82F WCI  24
FORT DODGE *   CLEAR     36  32  87 S10G16    29.89F WCI  28
MASON CITY     CLEAR     32  30  92 S8        29.90S WCI  25
FOREST CITY *    N/A     32  32 100 S6        29.88S WCI  26
WEBSTER CITY * CLEAR     34  34 100 S12       29.88S WCI  25
IOWA FALLS *     N/A     34  32  94 SE6       29.92F WCI  29
$$

IAZ007>011-017>019-026>030-037>042-050>054-066-190600-
   NORTHEAST IOWA

CITY           SKY/WX    TMP DP  RH WIND       PRES   REMARKS
CEDAR RAPIDS   FOG       32  32 100 S10       29.98S VSB 3/4 WCI  24
CHARLES CITY * PTCLDY    32  32 100 S12       29.93R FOG     WCI  23
CLINTON *      CLEAR     30  29  96 SE7       30.03R FOG     WCI  23
DECORAH *      CLEAR     34  34 100 S8        29.92F WCI  27
DUBUQUE        CLEAR     32  31  96 S12       29.97F FOG     WCI  23
MONTICELLO *   PTCLDY    32  32 100 SE6       29.99S FOG     WCI  26
OELWEIN *      CLOUDY    32  32 100 S9        29.95S FOG     WCI  24
WATERLOO       CLEAR     33  31  92 S6        29.94F WCI  28
$$

IAZ064-065-067-068-078-190600-
   EAST CENTRAL IOWA

CITY           SKY/WX    TMP DP  RH WIND       PRES   REMARKS
DAVENPORT      CLEAR     32  32 100 S6        30.02S FOG     WCI  26
IOWA CITY      FOG       33  32  96 S6        30.02F VSB 3/4 WCI  28
MUSCATINE *    FOG       30  28  93 SE3       30.03F VSB 3/4
QUAD CITIES    FOG       28  25  88 E3        30.02F VSB 1/4
$$

IAZ062-063-075>077-085>089-095>099-190600-
   SOUTHEAST IOWA

CITY           SKY/WX    TMP DP  RH WIND       PRES   REMARKS
BURLINGTON     CLEAR     31  31 100 S8        30.02F FOG     WCI  23
FAIRFIELD *    MOCLDY    32  32 100 S6        30.00S FOG     WCI  26
FORT MADISON * CLEAR     34  34 100 S5        30.03F WCI  30
KEOKUK *       CLEAR     34  34 100 SE5       30.02S FOG     WCI  30
OSKALOOSA *    FOG       32  32  99 S7        29.99F VSB 1/4 WCI  26
OTTUMWA        FOG       34  32  92 S9        29.98F VSB 1/4 WCI  27
WASHINGTON *   FOG       32  32 100 SW3       30.02S VSB<1/4
$$

ABBREVIATIONS USED IN REMARKS
   TC - TEMPERATURES IN CELSIUS
  WCI - WIND CHILL INDEX
   HX - HEAT INDEX
  VSB - VISIBILITY
$$





USA.gov is the U.S. government's official web portal to all federal, state and local government web resources and services.